SL-14 DEB, 45318

Orbit data source: Space-Track

SL-14 DEB, 45318 is space debris in LEO originally from a launch on Thu, 15 Aug 1991 UTC launched from the Plesetsk Missile And Space Complex (PKMTR). Debris objects in space refer to the collection of defunct objects orbiting the Earth. Examples of debris include non-operational satellites, rocket bodies, and fragments generated from explosions, collisions, or faulty payload assembly.

Loading next visibility...
Identifier
45318, 1991-056BG
Orbit
LEO
Country
Flag of CISCIS
Related business
Manufacturer
Unknown
Mission
Spacecraft
Bus & Motor
Unknown
Mass
Unknown
Launch date (UTC)
1991-08-15 (34 years ago)
Launch vehicle
Unknown
Launch site
Plesetsk Missile And Space Complex (PKMTR)
Object type
Payload
Rocket body
Debris
Shape & HBR
Unknown shape, 0.2 m
Radar Cross Section
Small (<0.1 m²)

Expand to show TLE details & history
Last TLE update: 9 hours ago

TLE from 9 hours ago
0 SL-14 DEB
1 45318U 91056BG  25292.19775374  .00000468  00000-0  11396-2 0  9995
2 45318  82.5676 307.8701 0009159 327.7254  32.3309 13.19574372271784
Epoch: 2025-10-19T04:44Z
TLE epoch observation values (Epoch: 2025-10-19T04:44:45.923Z)
Latitude
0.00006°
Longitude
-151.23911°
Altitude
1,183.304 km
Speed
7.265 km/s
True Right ascension
20h 31m 28s
True Declination
0° 00' 00"
Sunlit
Object was in daylight at epoch
Visualization orbit readout
Latitude
Unknown
Longitude
Unknown
Altitude
Unknown
Speed
Unknown
Apparent Right ascension
Unknown
Apparent Declination
Unknown
Sunlit
N/A
Visualization observer readout
Local Sidereal Time
08:40:13
Azimuth
Unknown
Elevation
Unknown
Doppler factor
Unknown
Orbital elements
Apogee altitude
1,190.512 km
Perigee altitude
1,176.661 km
Semi-major axis
7,561.724 km
Eccentricity
0.00092
Inclination
82.5676°
RAAN
307.8701°
Arg. of periapsis
327.7254°
True anomaly
32.38708°
Mean anomaly
32.3309°
Eccentric anomaly
32.35899°
Mean motion
3.30074 °/min
Orbital period
109.07 mins
BSTAR
0.0011396
Loading maneuver chart data...
Computing Atmospheric mass density...
Loading historical data...
Loading historical data...
Loading historical data...
Loading historical data...
Loading historical data...
Loading historical data...
Loading historical data...

Documentation

Showing up to 5 results
|